Location: Ohmer (historical)
(38.0096°N, 122.0227°W)
Time: 02:40:09
(UTC+00:00)

CZ-2C R/B - Pass Details

Date: 14 February 2026
Orbit: 663 x 773 km, 98.4° (Epoch: 7 March)

Event Time Altitude Azimuth Distance (km) Brightness Sun altitude
Rises 13:36:12 0° 353° (N) 3,066 5.5 -16.9°
Reaches altitude 10° 13:39:14 10° 331° (NNW) 2,165 4.5 -16.3°
Enters shadow 13:39:37 11° 327° (NNW) 2,081 4.4 -16.2°
